Regional Weather Roundup
Issued by NWS Boston, MA

Current Version | Previous Version | Text Only | Print | Product List | Glossary Off
Versions: 1 2 3 4 5 6 7 8 9 10 11 12 13 14 15 16 17 18 19 20 21 22 23 24 25 26 27 28 29 30 31 32 33 34 35 36 37 38 39 40 41 42 43 44 45 46 47 48 49 50

000
ASUS41 KBOX 031210
RWRBOX

REGIONAL WEATHER ROUNDUP
NATIONAL WEATHER SERVICE TAUNTON MA
800 AM EDT MON AUG 03 2015

NOTE:  "FAIR" INDICATES FEW OR NO CLOUDS BELOW 12,000 FEET WITH NO
SIGNIFICANT WEATHER AND/OR OBSTRUCTIONS TO VISIBILITY.  THE FOLLOWING
OBSERVATION LOCATIONS DO NOT REPORT PRESENT WEATHER...PROVINCETOWN...
SMITHFIELD...BLOCK ISLAND...KEENE...AND OXFORD.

MAZALL-031300-
EASTERN MASSACHUSETTS

CITY           SKY/WX    TMP DP  RH WIND       PRES   REMARKS
BOSTON         MOSUNNY   74  68  81 S9        29.86S
6HR MIN TEMP:  68; 6HR MAX TEMP:  74;

BEVERLY        SUNNY     75  67  76 SW10      29.84F
LAWRENCE       SUNNY     73  67  81 SW9       29.86F
BEDFORD        SUNNY     73  67  81 SW7       29.84S
BLUE HILL        N/A     71  68  90 S8        29.87S
NORWOOD        SUNNY     74  70  87 S5        29.86S
MARSHFIELD     SUNNY     75  72  88 SW6       29.88S
PLYMOUTH       SUNNY     75  71  87 SW9       29.88S
TAUNTON        SUNNY     77  70  79 S7        29.86S
NEW BEDFORD    SUNNY     76  72  87 SW8       29.86F
$$

MAZALL-031300-
CAPE COD AND THE ISLANDS

CITY           SKY/WX    TMP DP  RH WIND       PRES   REMARKS
FALMOUTH       SUNNY     77  72  83 SW14      29.88F
HYANNIS        PTSUNNY   78  73  84 SW13      29.87F
CHATHAM        CLOUDY    70  69  97 S5        29.90F
PROVINCETOWN   SUNNY     75  66  73 S13G18    29.88S
NANTUCKET      MOSUNNY   75  72  90 S9        29.89F
MARTHAS VNYRD  PTSUNNY   76  73  91 SW12      29.88F
$$

MAZALL-031300-
CENTRAL AND WESTERN MASSACHUSETTS

CITY           SKY/WX    TMP DP  RH WIND       PRES   REMARKS
WORCESTER      SUNNY     68  63  84 S9        29.88S
6HR MIN TEMP:  64; 6HR MAX TEMP:  68;

FITCHBURG      SUNNY     72  64  76 SE8       29.85F
ORANGE         SUNNY     72  64  76 S9        29.85S
SPRINGFIELD    SUNNY     73  66  80 S7        29.84R
WESTFIELD      SUNNY     70  65  84 S5        29.84R
NORTH ADAMS    SUNNY     68  59  73 VRB5      29.82F
PITTSFIELD     SUNNY     70  61  73 VRB7      29.85S
$$

RIZALL-031300-
RHODE ISLAND

CITY           SKY/WX    TMP DP  RH WIND       PRES   REMARKS
PROVIDENCE     MOSUNNY   75  69  81 VRB6      29.87S
6HR MIN TEMP:  67; 6HR MAX TEMP:  75;

NEWPORT        SUNNY     74  71  91 SW8       29.87F
BLOCK ISLAND     N/A     73  73 100 S9        29.89S
SMITHFIELD     SUNNY     72  70  94 SW5       29.88R
WESTERLY       SUNNY     75  70  84 SW6       29.88R
$$

CTZALL-031300-
CONNECTICUT

CITY           SKY/WX    TMP DP  RH WIND       PRES   REMARKS
BRADLEY INTL   MOSUNNY   72  66  81 S6        29.84S
6HR MIN TEMP:  64; 6HR MAX TEMP:  72;

HARTFORD       SUNNY     74  65  73 S6        29.84S
BRIDGEPORT     SUNNY     77  66  68 SW8       29.85S
DANBURY        SUNNY     75  60  59 SW6       29.87S
GROTON         SUNNY     74  70  87 S8        29.86S
NEW HAVEN      MOSUNNY   75  66  73 S7        29.86R
CHESTER        NOT AVBL
MERIDEN        SUNNY     74  66  76 SE5       29.85S
WILLIMANTIC    MOSUNNY   70  66  87 CALM      29.87S
OXFORD         SUNNY     72  61  68 SW5       29.88S
$$

MEZ002-015-021-024-NHZ003-005-008-011-012-014-VTZ005-008-031300-
NORTHERN NEW ENGLAND

CITY           SKY/WX    TMP DP  RH WIND       PRES   REMARKS
PORTLAND ME    MOSUNNY   70  66  87 S9        29.84S
6HR MIN TEMP:  64; 6HR MAX TEMP:  70;

BANGOR ME      MOSUNNY   69  61  75 S12       29.84S
CONCORD NH     SUNNY     70  61  73 S7        29.83S
MANCHESTER NH  MOSUNNY   71  65  81 S7        29.83S
NASHUA NH      SUNNY     71  66  84 SE5       29.85S
PORTSMOUTH NH  SUNNY     74  66  76 SW6       29.83S
JAFFREY NH     SUNNY     70  63  78 S9        29.87R
KEENE NH       SUNNY     68  57  68 CALM      29.84S
BURLINGTON VT  MOSUNNY   75  58  55 S20G29    29.69S
MT. WASHINGTON FOG       52  50  93 SW38G45     N/A  VSB 1/16
$$

NYZ052-076-031300-
EASTERN NEW YORK

CITY           SKY/WX    TMP DP  RH WIND       PRES   REMARKS
ALBANY         MOSUNNY   74  59  59 S15       29.78F
6HR MIN TEMP:  69; 6HR MAX TEMP:  74;

NEW YORK CITY  MOSUNNY   79  61  53 SW8       29.85R
6HR MIN TEMP:  76; 6HR MAX TEMP:  79;

$$

ANZALL-031300-
MARINE OBSERVATIONS

STATION/POSITION TIME  TEMP    WIND        PRES    VSBY  WAVE
                       AIR SEA DIR/SP/G                  HT/PER
                 (UTC) (F)     (DEG/KT/KT) (MB)    (MI)  (FT/S)
BOSTON BUOY      1150   71 69  200/ 10/ 12 1011.4R         2/ 4
BUZZARDS BAY     1100          200/ 13/ 14 1012.4R
NANTUCKET SOUND  1150   74 71  210/ 10/ 12 1011.7F         1
MASS BAY-STELLWA 1104   69 67  200/ 10/ 12   N/A    1 7/8  2/ 8
ISLE OF SHOALS   1100   67     200/ 12/ 13 1010.2R
S OF BLOCK IS    1108      75                N/A           3/11
$$

......................KEY.........................
  SKY/WX - SKY CONDITION/PRESENT WEATHER
  TMP    - TEMPERATURE IN FAHRENHEIT
  DWPT   - DEWPOINT IN FAHRENHEIT
  RH     - RELATIVE HUMIDITY IN PERCENT
  WIND   - DIRECTION AND SPEED IN MPH
  PRES   - MEAN SEA LEVEL PRESSURE IN INCHES OF HG
  WCI    - WIND CHILL INDEX
  VSB    - VISIBILITY IN MILES
  HX     - HEAT INDEX
  TC     - TEMPERATURE IN CELSIUS
  VRB    - VARIABLE WIND DIRECTION
  N/A    - NOT AVAILABLE


USA.gov is the U.S. government's official web portal to all federal, state and local government web resources and services.